Theta_e
305 305 305 305 305 305 305 305 306 306 307 307 307 307 306 306 307 308 307 307 308 308 309 310 309 310 309 310 310 311 312 313 311 310 308 306 308 309 310 310 311 312 314 316 315 315 313 312 312 313 315 313 312 313 313 311 313 322 323 317 318 318 317 317 317 317 314 313 311 305 303 303 301 300 299 298 299 299 300 300 299 298 298 299 299 298 299 299
306 305 305 305 305 305 306 306 306 306 306 307 307 307 306 307 307 308 308 308 308 309 309 310 310 309 309 310 311 311 313 313 311 309 307 308 309 310 311 311 312 312 314 315 314 314 312 310 309 311 313 312 311 313 313 311 311 318 320 317 316 316 313 312 315 313 311 312 310 305 301 302 302 300 299 300 299 299 300 300 299 299 298 298 298 299 299 299
305 305 306 306 306 306 306 306 306 306 306 307 307 307 307 307 307 307 308 308 308 308 309 310 309 309 309 308 310 312 313 312 310 308 307 309 310 311 311 312 312 312 314 314 313 313 311 310 309 310 312 310 310 310 311 312 313 314 317 318 313 311 310 309 311 311 309 308 306 303 302 302 301 300 300 301 299 299 302 301 299 299 299 299 298 298 299 299
304 305 306 306 306 306 306 306 306 306 306 307 307 307 307 307 307 307 307 308 308 309 309 309 309 309 309 308 309 310 311 312 309 307 308 309 311 311 312 312 313 312 313 313 312 311 310 309 308 309 310 311 310 309 309 310 314 313 313 316 311 309 310 308 308 309 306 305 305 304 303 302 301 301 301 300 300 300 302 301 301 301 300 300 298 298 298 299
305 305 306 306 307 306 306 306 306 306 306 306 307 307 307 307 307 307 307 307 308 308 308 309 309 309 309 309 309 308 313 316 309 306 308 309 311 311 312 313 313 313 312 312 311 310 310 308 309 313 311 311 313 312 309 307 310 310 309 311 308 308 308 306 306 306 304 304 305 303 302 302 301 301 301 300 302 303 302 301 301 301 299 298 298 297 298 299
305 305 305 306 307 307 306 306 305 306 306 306 307 307 307 307 307 307 307 307 308 308 309 309 309 310 310 309 309 309 315 314 307 306 308 309 311 311 311 313 313 312 311 311 310 309 310 309 311 315 310 308 310 311 308 305 307 309 308 307 307 307 306 305 305 304 305 304 303 302 301 302 302 301 300 300 303 304 301 299 298 298 298 298 298 298 298 299
306 306 306 306 307 307 306 306 306 306 306 306 306 307 307 307 307 307 307 307 308 309 309 309 309 310 309 310 310 309 311 309 305 307 307 309 311 310 311 312 312 313 311 310 308 307 308 308 309 310 309 309 307 306 305 305 306 308 307 306 305 306 304 304 304 304 306 304 302 302 301 302 302 301 300 300 302 301 298 297 297 298 298 298 298 298 298 299
306 306 306 306 306 306 306 306 306 306 306 306 306 307 307 307 307 307 307 307 308 309 309 310 310 310 309 309 310 308 308 307 306 307 307 309 310 310 311 311 312 312 310 309 308 306 307 308 308 309 309 309 306 305 306 305 306 307 307 305 304 304 304 303 304 305 305 303 302 302 301 302 302 301 300 301 301 299 297 297 297 298 298 297 297 298 298 298
306 306 306 306 306 306 306 306 306 306 306 307 306 306 306 306 307 307 308 308 308 309 308 310 310 311 311 309 309 309 307 306 307 307 307 309 309 310 311 311 310 310 309 308 307 307 309 309 309 309 308 306 306 306 307 306 306 307 306 305 304 304 303 303 304 303 303 303 302 302 302 302 301 300 302 303 302 297 296 297 297 297 298 297 296 298 298 298
306 306 306 306 306 306 306 306 306 306 306 307 306 306 307 307 308 308 308 308 308 309 309 310 309 311 311 308 309 310 307 306 306 307 308 309 309 310 311 310 310 310 309 308 307 308 310 309 306 306 305 306 306 306 307 307 305 305 304 304 304 304 303 304 304 303 303 303 302 303 302 302 301 301 305 305 300 297 297 299 297 298 300 298 295 297 298 297
307 306 306 306 306 306 306 306 306 306 307 307 307 307 307 308 308 308 308 308 309 309 308 308 309 310 308 306 309 309 306 306 306 307 308 308 309 309 309 309 310 310 309 307 306 307 308 306 304 305 306 306 306 305 305 305 304 303 303 304 303 304 303 303 304 303 303 302 303 304 302 302 301 301 307 306 299 299 300 300 299 299 301 299 295 295 298 297
306 306 306 306 306 306 306 306 306 307 307 307 307 308 308 308 308 308 308 308 308 309 308 308 308 309 307 306 308 307 306 306 307 307 308 308 308 308 308 309 309 309 308 306 305 306 307 306 305 307 306 304 305 306 304 303 303 303 304 305 303 304 304 302 303 303 302 303 303 303 302 304 304 304 308 304 299 299 300 301 301 300 301 301 296 293 296 298
306 306 307 306 306 306 306 307 307 307 307 307 308 308 308 308 308 309 309 309 309 309 308 309 309 308 308 308 307 306 306 306 306 307 308 308 307 307 308 309 308 308 308 306 306 306 306 306 305 306 304 304 305 304 303 303 303 303 304 305 304 307 305 302 302 302 302 303 302 301 303 306 307 308 306 301 299 299 300 301 301 300 300 301 299 296 295 297
306 307 307 306 306 306 307 307 307 307 307 307 308 309 309 308 309 309 308 309 308 308 308 309 309 307 308 308 306 306 307 306 306 307 307 307 308 308 307 307 307 307 307 306 306 305 305 305 305 304 303 304 304 303 303 303 304 304 302 305 310 310 304 302 304 303 302 302 302 301 304 306 307 310 305 299 299 300 301 302 301 301 300 300 301 301 298 296
306 307 307 307 306 307 307 307 307 307 307 307 308 309 310 310 310 310 310 309 309 309 308 309 309 309 310 308 306 306 307 306 306 306 307 308 308 308 308 308 307 307 306 306 305 305 306 305 305 305 303 304 304 304 305 305 306 305 303 308 314 312 305 305 305 304 302 301 301 302 305 306 306 307 303 299 299 300 302 303 302 302 301 301 301 303 302 297
307 307 307 307 307 307 307 307 307 307 308 308 309 310 311 312 311 311 311 309 309 309 308 309 308 309 311 308 305 307 307 307 307 306 306 308 308 309 309 309 310 309 309 308 308 307 306 306 305 303 305 305 305 307 310 309 310 309 309 310 310 310 307 306 304 303 304 302 301 301 304 307 305 305 302 298 299 300 302 303 303 303 303 302 302 303 303 299
307 307 307 307 307 307 307 308 308 308 308 308 309 310 310 311 311 311 311 310 312 310 309 308 306 309 308 307 307 308 308 307 307 306 307 308 309 310 309 310 312 309 310 310 308 308 308 310 308 304 306 304 304 313 315 311 311 311 312 310 305 305 306 306 304 303 303 303 302 302 304 308 307 305 302 299 299 300 301 303 304 304 304 304 303 302 302 302
307 307 307 307 307 307 307 308 309 309 309 309 309 308 309 310 310 310 310 311 312 313 313 308 311 315 308 306 308 307 307 307 307 307 308 309 310 311 310 311 310 308 316 316 309 310 310 311 310 308 309 304 303 314 314 309 312 310 311 310 305 304 305 306 305 302 303 305 306 304 305 308 309 307 304 300 299 300 302 303 303 304 305 304 303 302 302 304
307 307 307 307 307 307 307 308 309 309 310 310 310 310 309 308 308 309 308 309 312 314 313 309 313 319 311 307 307 307 307 307 308 307 308 310 310 311 310 309 310 312 324 321 311 315 313 311 312 310 310 306 304 307 307 308 310 309 311 313 310 307 304 304 305 303 302 305 308 306 305 308 309 308 304 300 299 300 302 302 302 304 304 303 303 304 305 305
307 307 307 308 307 307 307 308 308 309 309 308 311 312 312 313 313 312 310 310 310 308 309 308 311 315 313 309 307 310 309 306 307 307 308 310 310 312 309 313 319 318 323 319 309 310 308 309 311 307 305 305 305 303 302 304 303 305 312 314 311 310 305 303 305 304 302 304 306 305 306 309 310 308 303 300 300 300 301 302 303 305 304 303 304 305 306 305
307 307 308 308 307 307 307 308 307 309 309 307 312 313 315 322 318 311 312 312 308 306 308 308 309 311 310 308 308 309 311 310 307 306 308 308 310 311 309 318 328 315 315 316 310 308 308 309 306 304 305 304 304 303 302 305 305 307 313 315 312 308 306 305 303 305 303 303 306 305 309 312 310 309 303 299 301 301 303 303 304 305 304 304 305 307 307 303
307 307 308 307 307 307 307 308 308 308 309 308 312 312 311 316 313 308 311 311 308 307 308 307 308 310 307 307 307 306 311 314 310 307 307 309 312 313 313 322 327 315 314 319 314 309 310 308 303 303 305 303 304 305 305 308 311 313 315 317 314 305 306 306 303 306 305 303 309 308 308 313 312 309 305 301 302 304 304 304 304 305 305 304 305 306 307 304
306 307 307 307 307 307 307 308 308 309 311 310 310 310 309 310 310 309 311 313 312 308 309 310 311 312 310 309 307 308 313 312 310 310 307 310 315 315 318 321 320 317 316 316 315 311 309 304 303 304 303 304 308 309 311 312 309 312 317 315 311 306 306 305 304 308 307 304 307 307 308 315 312 307 305 302 302 305 306 304 305 305 304 306 305 304 306 307
306 307 307 308 307 307 308 308 310 310 310 310 309 309 310 310 311 311 313 319 318 311 309 309 309 311 311 309 308 311 314 308 309 311 307 311 315 313 316 315 313 313 307 307 312 312 308 301 301 307 308 308 312 313 316 316 310 309 313 311 308 307 305 306 307 309 310 305 304 308 314 319 314 307 307 306 302 303 304 304 305 304 303 305 304 302 305 307
306 307 307 308 307 307 309 309 310 309 309 310 310 310 311 311 311 310 319 328 321 312 311 308 307 309 307 308 308 308 311 310 308 308 306 309 313 312 312 311 310 308 303 304 308 309 307 301 300 309 314 312 313 314 309 310 313 310 307 306 306 306 306 309 312 310 312 310 304 306 313 320 320 313 310 308 304 303 304 304 305 305 304 305 305 304 305 305
306 308 307 308 307 307 309 311 309 309 311 310 310 312 310 310 308 308 324 338 323 312 313 310 307 308 307 309 309 307 311 312 306 306 308 308 308 309 313 312 310 309 306 307 309 308 306 305 305 309 315 315 314 312 304 306 321 314 305 304 305 306 308 312 315 310 311 310 304 305 309 316 322 316 310 309 306 305 306 306 307 307 305 305 306 306 305 305
306 308 307 308 307 307 311 312 310 310 312 309 309 310 307 308 307 307 324 335 320 311 313 313 308 308 310 308 308 309 310 309 306 306 308 308 307 309 314 315 312 310 307 309 312 307 304 310 312 312 317 320 315 309 303 305 318 311 305 305 307 308 308 311 314 312 310 308 308 312 309 308 320 322 313 308 306 307 307 307 308 309 307 305 306 306 306 305
307 308 308 307 307 308 311 311 310 311 312 309 308 307 307 306 305 313 330 325 313 311 311 312 309 307 311 309 309 313 310 309 310 307 307 308 306 309 316 314 311 310 305 313 316 304 302 308 309 312 319 318 311 306 303 304 309 307 304 304 305 305 307 309 313 315 312 310 314 317 307 306 326 330 314 305 305 307 309 309 308 310 309 308 307 306 306 304
307 308 308 307 307 308 311 309 311 313 311 308 307 307 307 305 307 323 335 320 310 311 310 310 308 308 314 314 312 315 312 309 311 308 307 307 304 308 314 310 308 308 303 310 316 304 300 304 303 307 313 310 306 304 303 305 306 305 303 304 305 306 307 307 311 315 315 317 316 313 305 306 324 328 311 303 306 309 310 309 308 310 311 309 308 306 306 305
306 308 308 308 308 309 310 310 312 312 310 308 307 308 306 311 327 331 322 315 311 310 311 312 309 310 317 316 312 315 314 313 315 311 308 310 310 309 308 306 308 312 308 309 310 304 302 303 303 304 305 304 302 302 302 303 303 303 305 309 309 309 308 308 314 316 316 323 321 309 304 304 315 324 313 306 309 312 311 308 306 308 309 307 307 306 304 305
306 308 308 308 308 310 311 311 313 310 310 309 306 307 308 320 342 335 312 311 312 311 312 312 312 316 319 315 311 314 317 315 315 315 314 316 319 317 312 309 312 318 322 320 311 305 307 308 304 302 302 302 302 304 303 302 304 305 310 311 309 313 313 314 324 320 314 324 320 308 305 304 311 322 317 311 311 311 311 309 308 306 307 307 305 304 303 304
306 307 308 307 308 310 311 311 311 308 309 309 305 314 325 323 328 325 312 310 312 313 313 311 312 316 317 317 313 313 316 314 313 316 316 316 317 314 311 311 311 313 319 320 313 308 309 308 304 303 303 300 303 307 308 307 307 309 315 318 319 326 321 320 331 322 314 321 311 303 305 305 311 318 316 316 314 309 309 310 309 307 307 307 305 304 302 301
305 306 307 307 308 309 311 310 309 307 308 308 310 326 344 332 316 313 313 313 311 310 311 311 313 313 315 319 314 310 312 310 311 313 309 311 317 311 306 306 305 309 314 314 314 315 310 307 307 306 303 300 302 307 310 311 310 311 315 318 324 328 319 321 328 317 315 320 308 300 305 311 316 314 311 313 311 307 306 306 307 307 308 308 305 304 303 301
306 307 307 308 309 308 311 309 307 308 305 310 322 328 327 320 314 311 311 312 309 309 310 311 314 315 314 315 311 309 313 309 310 316 313 316 323 315 311 310 304 309 319 315 314 318 314 311 310 305 302 302 302 302 305 305 307 310 307 310 319 320 316 318 322 319 316 319 315 305 307 319 319 307 306 307 305 303 304 303 303 304 306 305 303 303 304 304
307 308 307 309 309 308 310 307 306 309 305 316 337 334 319 315 316 316 315 311 310 312 310 310 320 324 316 313 311 308 311 309 309 317 318 316 317 312 311 311 306 307 315 314 311 313 314 312 308 304 301 301 302 301 300 303 309 308 304 312 316 312 316 314 310 313 311 312 320 313 309 320 314 304 305 306 303 302 302 303 303 305 305 304 304 305 304 303
307 307 308 308 307 307 308 305 307 308 309 325 337 328 322 318 313 318 318 312 312 314 311 314 323 327 317 313 314 310 309 310 312 316 314 311 310 308 308 308 304 304 309 314 312 309 311 310 306 305 303 299 300 300 299 303 307 306 307 312 306 302 315 316 305 307 307 310 322 315 311 319 313 308 309 305 304 304 302 303 304 305 306 305 307 308 306 304
307 306 305 305 305 307 305 305 308 308 314 334 335 317 314 311 307 314 315 310 311 315 322 324 316 315 319 316 314 316 313 309 312 316 312 309 308 307 308 308 303 301 304 309 310 308 311 311 306 305 307 301 298 300 301 301 302 307 309 306 301 302 313 316 313 318 318 318 323 317 314 318 316 316 314 306 304 305 304 305 304 305 305 305 307 307 305 305
305 304 304 303 304 305 304 306 308 311 324 340 333 316 310 306 304 309 311 308 310 316 326 328 312 308 319 321 315 314 313 310 314 317 313 310 309 306 308 310 304 302 301 303 308 307 310 313 308 304 306 304 299 302 306 303 298 304 306 301 304 311 313 314 317 321 320 317 322 324 319 314 314 319 317 311 310 308 306 304 303 305 305 304 305 305 304 304
304 309 309 304 304 305 306 307 309 319 334 334 326 316 309 307 306 306 307 307 310 315 318 318 313 310 313 317 316 312 311 313 314 316 314 310 309 306 306 307 304 304 303 302 307 306 307 314 313 307 303 303 304 307 312 310 301 302 304 301 306 313 312 312 310 311 315 316 319 325 325 321 320 324 321 315 314 312 309 306 304 304 303 304 304 303 305 305
307 314 310 302 306 307 305 308 316 333 338 321 317 314 306 307 308 305 305 306 307 310 313 315 315 315 312 311 313 311 311 315 313 313 313 309 308 306 304 304 306 306 304 302 305 306 307 311 312 310 304 304 308 308 313 314 306 306 311 309 308 308 306 308 307 307 314 318 317 318 323 328 326 320 318 314 313 312 310 310 309 306 303 302 301 302 304 304
310 317 307 302 308 308 308 314 318 324 325 313 310 310 306 308 308 305 304 303 302 303 309 317 317 317 316 313 312 311 313 317 315 313 312 309 309 309 303 300 303 303 304 306 306 306 308 313 316 316 313 313 312 304 302 303 301 304 310 310 312 311 310 314 315 309 308 312 316 315 317 326 323 313 311 310 309 309 306 306 311 312 309 304 301 301 302 303
316 318 305 303 308 306 314 321 311 310 318 312 307 306 307 309 306 305 304 302 303 303 305 313 314 314 316 314 312 313 317 318 313 311 312 308 308 308 302 297 299 299 302 308 306 302 306 316 321 317 313 309 305 298 297 297 296 298 301 303 307 311 316 321 319 315 308 305 309 309 312 323 322 313 312 310 307 307 304 302 306 310 309 305 302 301 301 302
325 316 303 305 307 308 319 321 310 311 313 306 302 303 306 307 306 304 304 303 304 305 306 309 309 310 311 309 309 313 316 315 309 308 310 308 304 302 298 297 299 300 302 306 307 302 304 313 318 321 319 310 302 297 296 294 295 300 302 302 303 306 315 320 317 316 312 307 309 310 313 325 326 315 314 313 309 309 308 305 306 307 305 304 303 301 302 304
322 311 306 308 304 307 320 324 319 315 307 302 304 304 303 304 306 306 306 306 305 306 309 309 306 306 308 308 310 308 308 310 308 305 306 309 304 298 298 298 299 301 304 306 306 303 306 313 318 326 330 324 316 311 307 302 301 306 306 303 303 305 309 313 311 310 312 313 314 315 319 328 329 320 317 316 314 312 311 309 307 306 306 306 306 304 303 303
316 311 312 314 306 305 313 320 325 319 309 307 307 305 304 303 303 305 306 306 305 306 309 307 305 308 307 307 309 305 303 307 309 305 304 307 304 299 299 299 299 302 303 301 301 303 308 312 317 325 328 327 328 325 319 314 310 309 306 303 304 305 307 312 311 310 315 315 310 315 323 323 320 319 316 314 316 314 312 311 308 306 306 305 305 305 304 303
315 316 315 313 309 309 310 309 316 316 311 314 310 305 307 306 303 303 303 303 303 304 307 305 305 309 308 308 312 310 304 304 307 308 307 309 306 301 299 298 299 301 301 300 299 302 308 310 312 324 331 332 333 324 314 311 311 312 309 305 305 304 306 313 314 315 319 315 312 316 319 315 313 314 312 312 313 310 309 310 308 307 306 304 303 302 302 302
316 321 320 315 311 314 313 308 312 314 312 316 313 307 310 310 305 302 301 301 303 303 305 304 304 309 311 312 315 313 306 305 308 309 308 307 303 299 297 297 299 299 300 301 299 301 310 312 308 313 320 321 320 315 309 309 311 313 312 310 308 304 304 309 313 316 316 314 319 321 313 311 314 313 310 310 309 308 309 307 306 306 305 305 304 303 302 302
309 314 313 311 313 317 315 312 315 316 313 313 312 309 312 311 307 306 303 301 302 303 305 307 307 310 314 314 317 316 310 309 310 307 306 304 302 300 299 297 298 298 298 300 299 302 312 312 305 306 314 317 311 306 306 308 308 310 311 312 310 306 306 307 309 312 313 313 317 319 311 310 312 310 308 309 308 307 307 306 305 305 305 304 305 305 305 304
305 310 304 303 312 315 311 311 313 315 316 317 315 311 312 313 310 309 305 303 304 302 304 310 311 311 314 314 318 320 315 314 314 310 308 306 303 304 305 304 301 295 296 299 299 299 307 312 306 303 311 317 308 301 304 306 307 310 310 309 309 307 306 306 306 308 310 311 312 311 308 308 307 306 306 306 306 306 305 304 305 306 307 307 307 307 307 306
308 314 310 310 314 309 306 309 313 315 313 314 316 311 309 314 313 308 303 305 309 305 304 311 313 312 314 318 322 322 316 317 319 315 312 311 308 307 310 312 307 297 296 300 299 297 302 309 307 304 313 321 309 302 305 306 308 311 310 306 305 306 305 303 303 304 305 307 307 305 306 306 304 305 307 306 306 306 307 308 308 307 308 308 309 310 308 307
308 308 308 318 318 308 307 310 315 320 313 312 317 311 307 313 314 310 305 303 308 310 308 312 314 310 310 317 321 316 310 311 314 312 311 313 312 309 307 309 309 304 300 299 299 300 304 309 307 305 317 325 311 306 309 306 304 310 314 312 306 304 307 306 303 303 305 307 306 305 309 315 311 309 310 310 309 309 311 311 309 308 308 308 309 309 307 307
307 302 304 320 317 306 309 311 313 321 319 317 318 311 308 314 313 312 311 305 302 305 304 308 313 312 312 316 314 308 306 306 304 302 302 302 302 302 301 303 306 307 304 301 301 302 306 315 313 307 316 325 312 307 310 309 310 314 321 327 318 307 306 306 304 304 304 306 310 312 317 321 317 311 310 311 311 311 310 310 309 308 307 307 307 307 306 306
Wind_Speed
11 10 9 9 8 7 6 4 3 3 4 4 4 6 7 10 11 11 11 11 10 10 11 14 15 16 17 19 23 27 28 29 31 36 29 22 25 18 12 11 14 17 11 11 14 17 17 18 17 21 22 15 7 4 7 9 5 5 4 5 4 2 1 3 6 6 4 5 5 3 3 8 4 0 1 4 7 3 4 5 3 4 4 6 8 9 7 7
10 10 9 9 8 7 5 4 2 3 4 5 5 6 7 10 14 15 13 11 10 9 10 11 10 12 12 13 16 23 27 30 34 33 26 25 22 15 12 12 15 15 12 15 15 18 15 8 15 22 12 5 6 6 5 5 5 5 4 5 3 3 0 2 7 5 4 6 5 4 3 5 5 4 3 2 1 2 4 3 4 4 1 2 7 8 8 8
9 8 8 7 6 5 5 4 2 4 6 6 6 6 6 8 12 15 14 12 10 8 9 7 7 9 7 6 8 14 22 30 26 21 27 27 20 16 16 14 14 14 15 18 16 21 19 11 22 22 7 5 6 5 6 4 4 4 4 5 1 3 2 3 5 5 4 8 7 4 2 3 4 3 2 3 2 1 2 3 0 1 4 4 6 8 9 8
7 7 7 7 6 6 6 6 5 7 8 8 7 6 6 5 6 11 14 14 12 10 7 3 3 6 4 1 2 3 10 21 11 17 27 25 21 19 17 14 13 16 20 24 23 25 26 22 24 16 7 7 5 5 7 5 3 4 4 5 3 4 5 3 4 7 5 7 7 4 3 3 3 2 2 5 3 3 5 6 5 6 7 6 8 9 9 9
5 6 6 7 7 7 8 10 10 10 10 9 8 6 5 4 3 6 10 12 12 12 10 8 3 4 4 3 3 5 3 9 6 20 27 22 21 20 17 15 12 18 22 25 23 23 23 19 16 9 6 5 5 5 5 6 5 4 4 4 3 4 5 1 3 7 5 6 6 5 4 2 2 1 3 8 5 4 6 6 8 8 9 10 10 9 9 11
5 6 6 5 5 5 7 11 12 12 11 10 8 6 4 3 2 5 8 9 9 11 13 14 13 10 7 4 5 5 6 5 10 23 24 20 20 18 15 13 12 17 20 21 18 18 16 11 10 7 5 5 7 6 2 6 4 5 3 4 4 4 4 1 3 4 5 7 5 3 2 1 2 1 2 7 6 6 4 6 10 10 13 14 12 9 10 13
7 7 6 4 3 4 7 9 11 11 11 9 8 5 4 2 1 3 5 7 8 11 12 11 15 18 18 20 24 20 12 3 14 23 21 17 16 14 15 15 14 16 15 18 18 15 12 12 11 5 5 6 5 6 5 6 8 8 5 2 5 6 4 3 3 4 6 7 3 2 2 2 2 1 0 3 5 5 3 6 10 11 14 15 12 10 10 13
8 8 7 7 6 6 7 7 8 9 9 9 7 5 3 1 1 2 3 6 9 10 8 6 8 9 14 23 23 16 7 6 19 22 17 14 14 12 14 17 14 15 15 20 21 16 11 12 10 4 6 6 2 5 7 9 9 7 6 3 3 4 4 4 6 6 6 4 2 4 2 2 5 2 0 4 6 5 4 8 11 12 12 12 11 11 10 11
10 11 12 12 11 10 9 8 7 8 9 8 7 6 4 2 1 2 3 8 10 10 7 6 5 5 11 18 15 9 5 11 19 18 15 14 13 11 14 17 16 18 18 16 15 15 10 4 4 4 8 7 4 5 3 5 4 2 5 4 4 4 3 5 6 5 4 2 2 4 2 5 4 1 2 6 7 5 4 8 8 9 8 7 9 11 11 11
13 14 14 14 13 13 13 12 11 11 10 10 9 9 8 8 9 9 10 10 9 7 6 4 3 6 11 9 10 9 7 13 17 16 17 16 12 13 15 17 17 16 14 9 5 9 9 9 12 12 10 7 4 3 2 5 5 4 7 7 6 5 2 5 5 2 2 2 1 4 2 6 4 2 3 6 6 5 4 5 4 5 6 6 8 11 12 12
14 14 13 12 14 16 16 15 14 13 12 13 13 14 14 14 17 19 18 13 9 8 7 7 8 17 25 18 11 9 7 14 18 16 20 20 18 17 17 16 13 13 15 13 11 19 27 27 23 14 6 4 5 6 6 6 8 7 9 7 6 6 4 5 4 0 1 1 2 5 1 4 5 2 5 7 5 6 6 6 5 4 6 6 8 11 12 14
12 11 12 12 15 16 16 15 14 14 15 17 16 15 15 16 18 21 21 19 18 18 19 20 19 27 38 26 9 6 9 16 16 15 20 23 24 22 19 18 16 18 26 22 16 25 29 19 15 9 3 5 6 6 4 3 7 6 6 7 4 7 5 2 1 1 1 1 2 4 2 5 3 4 7 5 5 6 5 7 6 5 6 6 7 9 12 16
9 9 10 13 15 15 14 13 14 15 16 16 16 16 15 15 15 15 16 15 15 15 16 18 17 27 31 13 5 8 10 16 16 16 21 23 25 25 23 22 20 21 27 25 15 14 11 9 18 14 5 7 4 5 7 3 5 3 3 6 3 6 4 1 0 1 1 2 2 4 2 6 6 8 8 3 6 6 4 6 6 6 6 6 6 6 10 15
8 9 11 13 14 13 13 14 16 16 15 15 16 17 16 15 15 14 13 13 15 14 15 16 18 29 25 4 4 11 9 14 17 18 20 21 22 26 27 25 23 21 22 24 21 17 16 23 29 16 4 6 5 7 9 4 3 3 3 3 2 3 1 4 2 2 2 1 3 7 2 5 7 8 6 4 6 7 6 7 6 6 6 6 6 5 7 12
9 10 12 14 13 13 14 15 16 15 15 15 14 15 15 15 14 14 14 14 16 17 18 17 15 20 15 3 4 9 9 14 19 20 18 17 19 20 21 21 21 23 25 27 27 24 24 28 23 9 4 6 7 8 5 2 3 3 3 3 3 4 0 6 2 3 3 1 2 6 1 4 6 8 5 5 5 6 6 7 6 6 6 6 6 5 6 8
10 11 13 13 12 13 14 16 17 18 18 15 14 14 15 16 15 16 17 16 16 16 19 18 15 17 10 1 4 7 9 13 15 16 16 16 17 13 11 15 15 18 22 22 22 21 22 23 12 4 6 6 6 7 4 4 4 3 4 1 2 3 1 3 2 1 1 1 1 2 1 3 4 6 4 3 5 6 6 7 7 6 7 6 5 6 5 4
10 11 12 12 12 13 15 18 21 23 22 21 19 15 13 12 11 13 14 14 14 13 18 17 15 19 9 1 4 5 7 10 12 13 14 16 16 12 9 10 8 10 13 14 14 13 14 13 4 2 6 4 3 4 4 4 3 4 4 3 0 1 2 2 2 2 4 1 1 2 1 5 6 6 5 4 5 6 6 7 7 6 6 5 5 5 2 1
10 11 11 10 11 12 16 19 20 20 19 21 22 22 21 16 14 15 12 8 5 5 10 10 10 12 5 2 2 4 7 9 11 14 12 11 14 14 11 8 5 4 6 9 11 9 7 6 3 3 4 5 5 5 5 2 2 1 1 3 2 1 2 2 1 2 5 4 2 3 3 7 9 7 5 5 5 6 7 7 6 6 6 5 4 3 3 5
10 10 10 9 10 13 16 16 14 13 11 12 13 16 18 17 20 25 28 20 8 3 4 7 6 5 3 1 2 4 5 7 9 14 14 11 10 11 12 11 7 5 5 4 7 7 4 4 6 5 4 5 4 3 3 3 3 4 3 4 4 2 1 1 3 3 3 5 3 3 3 7 9 8 6 4 5 5 7 5 5 6 6 4 2 4 4 5
10 10 10 10 11 13 14 12 8 6 5 5 4 5 6 7 10 12 21 23 10 5 5 3 3 6 4 2 4 4 5 8 10 14 19 14 7 7 10 11 8 8 6 2 3 4 3 6 5 2 1 5 5 4 3 3 1 4 5 5 3 3 1 3 3 5 1 3 2 2 4 7 7 8 6 3 4 4 7 6 6 6 5 3 4 5 5 5
11 11 11 10 11 13 11 7 4 2 2 4 1 2 2 2 6 2 2 10 7 8 9 4 7 10 5 2 5 5 2 7 13 18 20 14 6 5 7 8 7 7 4 2 2 4 5 7 2 4 6 6 6 5 3 2 2 3 5 5 3 3 1 4 3 5 3 1 3 2 5 6 6 7 5 2 6 6 8 7 7 7 5 4 5 6 5 3
11 11 11 11 13 12 9 5 2 2 5 4 4 7 5 7 13 11 7 7 5 9 9 7 10 8 4 5 8 6 3 7 11 16 19 14 7 4 3 6 7 2 5 4 2 5 7 4 4 6 5 3 4 3 3 6 6 5 4 5 3 2 2 5 4 5 4 1 4 4 5 6 7 6 5 3 6 5 7 8 7 7 5 4 6 6 5 4
12 12 13 13 13 11 7 4 3 3 2 9 16 16 14 16 19 15 10 8 3 7 7 6 7 5 5 7 10 9 7 6 4 10 19 14 6 4 4 6 7 3 6 6 5 5 4 1 5 4 2 1 5 7 6 7 6 5 4 4 0 3 1 2 4 6 5 0 1 3 3 6 6 4 5 5 5 5 5 6 6 5 7 7 7 6 6 7
12 13 14 14 13 10 5 5 5 9 16 22 24 20 19 18 16 11 8 6 3 3 3 3 3 3 4 5 10 8 5 3 1 7 17 11 2 2 4 5 6 6 5 5 9 9 4 3 3 4 5 3 5 8 8 6 5 4 3 5 2 2 0 2 4 6 5 2 2 4 4 5 4 1 5 5 2 4 4 3 4 2 4 6 5 5 6 7
12 13 15 15 13 9 6 7 12 18 20 21 22 19 17 12 7 5 4 5 4 3 2 2 2 3 3 5 9 4 3 3 1 4 11 8 3 2 3 2 4 4 1 4 10 9 3 2 1 4 6 6 7 6 5 3 3 3 1 3 3 3 2 3 5 4 4 3 3 5 4 4 5 3 7 5 2 5 3 2 5 4 3 4 5 6 6 6
13 14 16 16 14 9 5 6 12 16 13 12 15 13 9 6 2 2 3 6 3 3 3 2 1 4 5 7 7 1 4 3 2 3 8 8 4 3 3 3 3 3 5 2 6 4 2 4 4 5 5 7 7 5 2 2 5 2 1 4 4 4 2 3 4 3 2 1 3 4 3 3 5 4 7 4 3 7 5 4 7 5 5 5 6 7 6 6
15 15 17 17 14 8 2 5 13 11 5 6 11 8 5 3 0 0 3 6 3 1 3 2 1 4 4 5 5 3 3 3 1 5 8 7 5 3 5 3 3 2 2 3 4 2 2 5 7 6 5 6 5 3 1 2 5 1 2 5 4 4 3 1 3 3 0 2 3 4 4 1 4 5 6 2 2 7 7 7 8 6 6 7 7 7 7 7
16 16 17 16 14 5 1 11 16 7 3 7 9 5 1 1 1 1 6 5 2 1 2 2 1 3 3 5 7 5 2 2 2 3 7 9 7 4 6 2 4 3 1 4 3 0 2 4 5 4 5 5 2 1 1 3 3 1 3 4 2 3 3 2 4 3 1 2 4 5 3 1 4 5 5 3 2 6 7 9 9 7 7 7 8 8 8 8
17 17 16 16 14 4 3 14 14 4 5 9 6 2 1 2 1 4 6 3 1 1 0 1 1 2 4 6 8 5 3 3 2 3 5 9 9 7 6 3 7 7 4 5 5 3 1 1 1 2 4 2 2 3 2 3 1 1 4 3 3 3 3 3 4 3 3 3 2 5 3 1 4 5 3 2 2 6 8 8 8 8 7 7 7 8 8 7
18 18 16 16 12 4 6 12 6 3 8 7 3 1 3 3 4 6 3 1 1 0 1 1 1 2 5 6 5 6 5 3 3 4 4 4 8 9 5 3 6 7 5 7 5 1 2 2 1 3 2 1 2 1 1 1 1 1 3 4 4 3 3 3 2 3 4 2 5 4 2 1 2 5 4 3 4 6 6 5 6 7 7 7 7 7 8 7
18 18 16 14 10 6 8 8 3 4 8 6 2 2 3 3 5 5 1 1 1 1 1 2 2 4 6 5 3 5 5 4 6 5 5 4 7 8 5 3 3 5 5 6 5 3 5 5 2 1 1 2 2 1 1 2 3 2 3 4 2 2 3 3 4 4 3 3 5 4 2 1 1 5 5 5 6 6 6 6 7 8 8 8 7 7 8 8
17 17 15 13 11 7 6 6 4 6 6 5 2 2 3 3 2 2 1 3 1 1 1 1 2 3 4 4 4 4 2 4 5 5 3 3 4 4 3 1 1 3 2 1 3 4 4 2 2 3 1 2 2 0 2 4 4 4 3 4 3 2 4 3 3 2 1 4 3 2 2 0 5 7 6 7 8 7 7 7 9 10 9 8 8 8 7 7
15 15 14 12 10 6 3 5 7 6 4 2 2 4 7 4 1 2 0 1 1 1 1 2 1 2 3 4 3 3 2 2 3 4 2 2 4 3 3 1 2 3 2 2 2 3 2 2 3 3 1 1 2 1 2 2 3 4 2 3 3 2 3 2 4 3 3 4 2 2 2 2 4 5 6 8 8 6 7 7 7 9 10 9 9 8 6 6
13 12 12 9 8 7 5 7 9 6 1 1 4 5 5 2 2 2 1 2 2 2 1 2 2 4 4 4 1 2 3 2 3 3 3 3 4 2 3 4 3 3 3 3 2 2 1 1 1 2 1 2 3 1 2 1 1 1 3 3 3 3 3 1 3 2 3 5 4 3 1 2 2 2 5 7 7 5 4 4 5 6 7 6 6 5 6 7
12 10 9 8 6 6 8 9 8 4 1 3 6 6 3 3 3 2 3 4 2 0 1 1 4 6 5 3 2 1 2 0 2 4 5 4 2 1 2 4 4 2 2 2 1 2 2 2 2 2 2 2 2 1 2 2 1 1 2 3 3 2 4 2 2 4 2 3 4 3 2 4 3 3 4 4 4 3 3 3 2 4 5 3 4 6 6 7
13 11 9 8 7 7 9 8 5 3 2 5 6 3 2 3 2 3 4 3 3 4 4 3 4 5 2 3 3 3 1 1 3 4 3 3 1 1 1 2 2 2 2 2 1 1 2 1 3 3 2 2 2 1 1 1 1 1 1 2 1 3 5 4 1 0 4 2 3 2 3 5 4 3 5 7 4 4 5 5 4 5 5 3 5 7 7 7
13 11 8 8 6 5 6 5 4 3 4 7 5 2 3 2 2 3 2 2 3 4 6 4 2 2 2 0 2 3 2 2 2 3 1 1 0 1 1 1 1 0 2 2 1 2 3 1 2 2 1 1 2 2 1 1 1 1 2 1 2 2 4 4 1 4 5 1 4 3 3 5 4 2 5 7 5 7 7 7 6 6 6 6 7 8 8 9
13 10 8 8 5 4 5 4 4 4 5 6 3 2 1 1 1 2 2 1 2 4 5 3 1 0 2 3 1 2 2 1 1 3 2 1 0 2 1 1 1 2 3 1 1 0 2 1 2 1 1 3 2 3 1 2 1 2 2 1 1 2 1 2 2 2 3 2 5 5 4 3 2 3 4 5 6 9 9 7 7 8 8 8 8 9 9 9
12 7 4 5 4 3 5 5 4 5 6 4 2 2 1 1 1 2 3 1 2 4 3 3 2 2 1 3 4 2 1 1 1 2 2 1 0 2 2 1 1 1 2 1 2 1 1 2 2 2 1 3 3 1 1 1 1 3 2 3 2 3 3 1 2 1 0 1 3 5 5 3 5 5 4 6 9 9 9 7 8 10 10 9 9 9 9 8
7 4 2 3 3 4 5 5 4 6 5 3 4 2 1 1 1 2 2 1 1 1 2 3 3 3 2 2 3 2 1 2 3 2 1 1 1 1 1 1 0 2 3 2 2 0 2 2 1 2 2 1 1 1 3 3 1 1 2 1 1 1 2 1 2 1 2 1 1 2 4 6 6 4 6 8 8 8 8 8 9 10 10 10 10 9 8 8
3 4 1 2 3 3 4 6 6 4 4 3 2 2 1 2 1 1 1 0 0 1 2 5 4 4 4 2 2 3 2 2 2 2 1 2 2 1 0 2 1 2 3 2 2 1 0 1 1 1 2 2 3 2 1 2 1 1 1 2 2 2 3 2 3 2 2 2 3 2 3 8 6 3 5 7 6 7 7 7 8 9 9 10 10 10 10 9
4 3 1 1 2 2 5 7 3 2 4 2 1 1 1 2 3 1 1 1 1 0 1 3 3 3 3 3 2 3 3 2 0 1 1 2 1 1 0 1 1 0 1 1 1 1 1 3 3 1 2 2 3 2 3 3 1 2 1 1 2 3 4 5 1 3 1 2 1 3 1 7 7 4 5 6 6 7 6 7 8 9 9 9 9 10 9 9
4 3 1 2 2 3 6 5 2 3 3 1 0 2 1 2 2 1 0 1 0 1 2 2 1 2 2 2 3 3 3 2 1 1 1 1 0 1 1 1 1 1 1 0 1 1 1 3 3 1 4 3 3 2 3 3 2 2 1 1 2 1 2 5 4 3 2 2 2 2 2 7 7 3 4 5 6 6 6 6 8 8 8 8 9 9 8 9
3 3 2 3 4 3 4 3 1 2 0 0 2 2 2 2 2 2 1 0 0 1 2 1 0 1 1 2 4 3 2 2 1 0 1 2 1 1 1 2 1 2 1 0 1 0 1 1 2 2 4 5 5 4 3 2 0 1 2 1 2 3 5 3 2 3 0 4 5 4 4 7 6 4 4 5 5 7 8 6 6 7 8 8 8 8 8 8
3 2 1 5 7 5 3 4 5 5 3 3 5 2 1 2 1 1 2 1 0 2 3 1 0 3 3 3 5 3 1 2 1 0 1 1 1 1 1 3 2 2 1 2 1 0 1 1 2 3 2 0 1 2 3 1 1 1 1 2 2 3 5 3 2 3 1 4 5 5 6 7 8 8 6 6 6 7 9 8 5 7 8 8 8 8 8 7
3 2 1 4 7 7 2 0 5 6 5 5 4 2 3 3 1 1 2 1 0 1 2 1 1 3 4 3 5 4 3 3 2 3 2 2 2 2 1 2 1 1 2 2 0 2 3 1 1 5 6 5 5 6 4 2 2 2 2 3 4 4 5 5 4 2 4 3 3 7 7 7 14 13 10 9 8 8 9 9 8 8 8 8 8 8 8 8
2 3 3 1 1 3 3 2 4 5 5 5 4 3 4 3 0 0 1 0 1 1 2 2 1 2 3 4 4 2 1 3 4 3 2 2 2 2 2 1 0 1 2 1 0 3 3 1 0 3 5 6 6 5 2 2 3 5 4 4 5 5 5 6 5 5 5 4 4 8 4 4 13 14 11 13 12 9 10 10 9 8 8 8 8 8 9 9
1 3 2 2 2 2 1 2 4 6 6 4 3 3 4 4 3 2 1 1 1 0 2 2 1 1 5 6 5 3 2 2 2 1 2 2 1 1 2 1 1 2 3 2 2 2 4 1 1 1 5 7 3 2 3 3 2 4 6 6 7 7 9 10 9 6 7 5 7 4 3 5 13 14 14 15 12 10 11 11 9 8 8 8 8 9 10 10
2 3 1 2 2 3 2 3 7 8 7 4 3 2 5 7 5 4 1 2 1 2 1 2 3 3 4 4 5 5 5 3 1 3 3 3 2 2 1 1 2 2 3 2 2 1 3 1 1 2 5 7 4 2 2 5 2 3 6 8 7 9 11 11 8 5 6 9 11 7 7 12 15 16 17 16 12 9 10 9 8 9 9 8 8 9 10 10
2 3 2 3 4 2 1 3 7 8 4 3 3 2 4 7 7 3 1 3 2 2 1 3 6 5 4 3 6 4 6 5 4 5 6 6 2 3 3 3 3 2 3 1 1 2 0 1 1 3 3 7 4 4 3 3 3 4 7 6 6 6 7 8 6 4 5 9 11 8 10 14 13 11 12 13 9 7 8 10 9 9 8 8 8 9 10 10
1 2 5 6 4 1 2 2 5 6 3 1 3 4 4 6 7 5 2 1 3 4 4 6 9 6 3 4 7 3 4 5 4 5 7 7 3 3 2 2 5 5 1 1 0 1 1 1 1 4 3 5 3 4 4 3 2 4 10 8 8 7 5 6 5 5 7 6 3 2 5 10 8 3 4 9 8 6 9 10 9 8 7 7 9 10 11 11
3 2 4 6 4 1 2 2 3 4 3 3 3 4 4 6 7 5 4 0 1 2 3 6 9 6 4 5 4 1 3 4 4 3 5 6 6 5 4 4 6 6 4 4 1 0 3 3 1 3 1 5 4 2 2 3 4 4 8 7 10 9 5 3 4 7 9 7 5 4 7 8 5 3 5 9 9 8 8 8 7 8 9 8 9 10 11 11
Wind_Direction
93 99 105 107 108 104 98 97 120 137 133 125 104 82 65 58 54 66 80 87 109 110 114 123 115 106 93 85 81 82 87 87 69 49 39 5 356 6 5 8 8 19 56 99 103 98 78 63 64 71 72 59 18 341 24 25 24 48 64 72 86 127 147 175 174 181 148 142 180 200 126 123 141 258 114 42 38 58 43 17 15 47 79 128 142 142 141 132
88 94 98 103 102 94 85 75 112 158 150 138 115 95 79 74 68 74 84 88 102 107 123 132 125 122 102 90 78 78 92 82 56 36 16 3 10 22 25 24 17 31 84 108 105 97 83 53 67 67 57 40 7 357 20 14 27 58 91 75 87 183 195 144 156 164 137 143 158 152 139 130 150 170 125 83 321 44 72 6 4 47 23 153 157 153 155 143
81 89 96 98 93 87 72 49 99 153 151 139 123 112 101 89 73 71 78 85 88 98 122 136 142 139 116 101 81 81 87 72 51 13 357 5 20 23 27 28 28 51 96 107 106 102 99 90 79 74 58 49 23 14 37 10 22 50 84 78 88 183 83 47 120 128 131 135 127 136 156 109 156 176 120 158 190 341 150 189 10 184 227 219 197 172 162 152
74 86 96 88 84 90 70 60 103 138 143 140 132 128 122 111 84 69 74 79 79 86 103 125 181 179 172 146 95 105 69 62 40 338 352 7 19 22 31 33 48 85 105 107 107 105 99 86 76 72 70 59 358 31 41 357 42 49 60 102 166 153 90 43 108 113 112 119 121 132 106 95 185 182 118 146 126 295 245 204 189 195 199 206 210 185 168 162
73 84 94 84 83 93 81 76 99 125 135 138 137 138 138 128 98 72 73 77 78 85 84 63 30 240 231 278 253 250 0 62 337 338 358 10 21 25 33 40 74 108 113 111 109 103 95 82 73 57 61 55 348 34 26 351 67 74 38 82 137 123 106 127 101 106 104 97 99 107 116 138 191 63 135 148 148 232 236 212 198 189 182 185 198 192 175 170
77 83 92 84 74 94 97 87 92 112 128 133 137 140 139 134 85 63 74 82 88 92 85 71 61 72 91 91 113 98 73 94 314 341 360 10 24 28 44 63 96 118 122 118 106 95 87 65 64 60 65 56 24 52 18 343 53 94 56 31 49 78 106 128 59 95 103 94 101 132 148 64 58 9 177 163 190 226 223 198 192 189 181 177 183 184 174 176
80 80 83 79 65 102 118 102 93 104 120 132 139 141 135 141 30 38 70 90 107 110 98 86 79 84 93 97 90 76 79 75 331 349 3 15 26 33 70 96 116 129 133 116 100 94 85 69 80 90 84 79 48 66 72 39 50 81 101 55 52 70 76 78 83 94 97 101 142 155 94 61 134 182 153 200 233 240 213 156 162 173 175 175 182 185 182 185
80 82 84 86 89 107 121 117 102 101 115 128 133 140 131 144 308 11 79 109 134 137 126 118 100 91 94 98 91 68 62 344 344 360 11 27 33 38 86 102 115 128 117 106 107 105 92 82 102 132 83 83 104 115 103 67 48 63 111 132 77 72 59 73 86 78 87 99 91 89 77 238 201 171 39 246 241 232 185 139 140 150 159 173 185 195 201 197
86 91 88 85 88 98 111 114 107 103 112 119 119 124 112 95 33 21 101 127 148 151 152 139 104 98 99 99 95 69 18 345 354 11 27 42 46 53 91 98 103 112 102 98 109 104 98 101 126 135 109 106 109 120 133 79 58 91 114 119 100 90 53 63 72 62 77 55 55 92 334 285 254 287 280 240 218 213 170 140 142 144 158 190 199 209 216 214
96 93 84 80 85 95 103 100 97 97 102 109 109 107 102 96 87 83 97 121 148 150 154 135 92 127 113 92 88 74 349 358 17 28 46 56 66 71 83 96 105 111 102 90 102 100 105 128 123 116 110 103 90 42 16 96 110 127 108 99 91 97 45 59 78 41 50 5 68 132 258 292 310 352 273 250 213 185 152 160 176 158 187 220 218 226 228 231
101 90 79 80 91 99 99 95 93 92 98 105 105 104 103 100 94 90 92 100 115 121 133 121 119 113 86 65 79 79 356 16 32 41 58 65 70 70 74 89 108 118 110 87 84 107 113 123 126 119 101 100 101 49 40 97 112 119 112 87 50 55 47 59 91 31 15 350 123 124 148 305 338 358 234 245 202 163 160 190 220 203 222 237 233 241 239 241
104 88 78 89 102 104 100 95 93 96 104 106 104 106 104 100 95 94 96 98 99 103 112 109 112 100 78 61 63 66 23 29 38 54 65 69 70 69 74 85 98 112 116 99 92 114 116 128 128 102 93 128 118 80 77 114 107 118 107 90 35 27 46 43 115 172 100 227 190 117 44 326 306 241 248 250 167 156 167 198 228 230 238 252 247 252 249 246
106 89 84 100 111 109 100 92 90 97 109 107 100 101 104 101 97 100 103 104 106 110 115 111 107 92 78 62 30 47 37 36 50 72 73 75 75 75 79 88 93 98 109 104 98 118 115 125 114 96 89 109 113 120 121 103 89 101 63 93 84 17 24 318 27 165 156 194 177 113 28 303 270 249 261 246 151 150 184 219 237 241 247 260 259 265 257 246
104 93 95 108 113 105 96 90 90 96 103 104 100 99 103 104 102 102 101 103 107 109 113 110 98 84 79 87 44 41 35 47 58 65 66 75 79 78 79 84 90 88 95 95 91 101 103 102 100 90 58 84 115 115 96 65 54 87 61 58 82 68 8 295 319 109 103 193 116 96 112 277 277 273 265 205 160 157 199 239 248 250 251 254 257 264 259 241
102 99 106 112 109 102 97 93 92 94 99 104 104 102 102 104 104 101 100 106 104 103 105 98 89 85 79 79 51 28 33 50 48 45 47 60 68 71 74 78 85 87 89 88 88 93 94 90 83 70 56 51 81 96 75 42 23 54 92 348 357 91 278 304 316 104 91 266 85 91 150 273 276 277 259 178 163 166 200 248 259 263 262 254 253 245 247 248
106 109 115 113 107 105 100 96 96 96 97 98 101 105 106 104 104 100 99 102 100 99 96 86 85 92 91 67 33 17 27 31 27 36 42 49 55 56 68 80 82 84 86 84 87 86 75 74 67 63 78 42 59 85 58 48 12 358 93 112 342 67 56 322 331 71 63 259 332 59 215 273 282 290 286 174 166 177 206 255 267 269 268 259 247 232 238 275
115 120 123 115 108 107 105 106 105 99 95 93 95 100 106 109 114 106 100 99 94 92 89 82 81 82 72 326 29 9 356 3 13 33 41 45 48 51 68 79 65 74 85 70 65 59 43 53 60 41 61 46 56 80 62 43 343 334 43 89 107 68 85 1 319 336 27 71 284 355 252 250 272 294 293 225 179 179 212 248 264 269 273 264 245 232 213 148
126 129 129 120 112 111 114 117 110 100 96 94 94 95 95 97 101 86 74 98 100 67 72 47 47 73 54 343 19 322 320 347 15 28 36 42 43 49 56 55 31 40 65 41 33 29 15 28 60 61 35 23 30 53 84 143 189 127 84 108 95 43 80 48 294 316 14 32 15 4 315 275 290 302 293 243 184 184 219 240 263 273 283 272 229 201 163 148
138 134 133 126 119 120 124 126 115 104 100 96 99 101 94 83 79 64 51 60 65 41 60 346 6 102 124 48 318 308 348 5 20 26 26 26 32 46 44 38 40 53 53 21 14 17 27 36 44 64 21 350 358 39 101 178 158 126 153 132 121 114 58 279 258 285 13 39 19 2 305 285 297 308 304 259 183 193 238 262 278 276 290 282 177 170 169 158
145 139 136 130 129 131 132 131 120 116 99 80 95 111 101 68 62 42 36 52 63 73 87 326 25 88 81 32 325 339 33 44 41 26 20 12 11 37 22 17 33 50 51 10 352 358 62 68 49 85 276 292 280 263 240 228 161 117 115 87 97 114 3 278 275 294 349 62 315 297 294 278 279 296 302 256 174 209 250 265 272 269 280 252 165 172 185 178
152 146 140 137 139 136 131 126 118 123 14 2 27 106 153 125 92 151 31 60 56 60 70 50 69 77 70 36 351 346 36 49 34 21 18 9 9 32 358 8 46 44 5 310 334 357 59 75 30 245 236 260 285 275 232 164 85 105 114 90 63 74 311 271 272 301 341 43 266 329 339 292 277 296 315 138 161 216 234 234 255 255 257 231 176 179 195 205
162 156 147 147 147 137 123 107 81 335 328 339 106 100 110 127 119 130 126 92 36 35 56 55 63 61 55 54 16 7 59 43 17 6 10 8 18 48 358 33 71 68 341 356 41 30 50 71 260 255 244 265 341 354 104 92 74 68 88 100 61 14 296 277 290 316 350 35 269 342 359 292 276 288 299 192 183 233 230 213 232 229 216 206 188 187 190 196
168 163 155 155 151 139 113 68 7 334 69 113 110 104 110 116 119 119 105 103 55 19 32 40 54 29 15 38 19 27 70 56 4 344 357 7 27 64 78 62 67 56 359 21 98 103 80 310 270 276 292 22 26 21 55 67 57 47 59 97 48 325 360 271 298 320 327 298 286 353 354 293 292 305 290 245 212 265 268 226 237 223 196 193 191 189 178 180
168 165 161 161 154 139 105 58 72 100 111 113 108 112 124 123 125 122 95 89 71 21 28 41 83 57 15 15 11 31 86 75 99 333 352 15 68 45 85 105 77 56 18 49 95 101 103 260 289 28 31 75 79 34 38 62 48 17 55 109 155 303 17 238 284 322 330 347 31 41 17 309 307 304 275 283 253 270 298 256 253 250 197 184 181 199 194 188
166 165 163 161 156 142 108 87 104 110 109 109 113 123 130 129 140 137 85 64 43 334 358 38 77 46 12 5 4 21 114 57 71 315 351 27 64 44 79 113 85 82 260 74 83 84 73 289 322 48 35 52 85 54 30 91 91 8 10 146 167 183 202 297 324 358 22 2 2 42 35 297 306 275 248 283 284 251 295 264 237 249 217 182 182 209 217 213
164 164 161 159 158 149 114 96 119 120 105 108 128 138 139 139 167 164 94 66 38 312 344 5 18 13 352 353 351 43 90 20 312 357 13 25 27 93 81 2 57 137 204 127 81 93 28 347 34 80 72 54 66 64 0 137 107 45 228 164 159 151 131 12 12 48 85 297 324 52 95 256 314 289 242 257 257 253 285 278 249 247 232 213 204 208 210 215
164 162 159 160 162 152 108 143 150 139 105 131 146 145 151 151 94 133 77 51 16 312 9 326 346 16 343 342 354 104 99 316 314 35 27 23 360 74 80 9 51 97 186 106 66 48 345 353 25 50 69 59 54 49 349 128 104 55 190 138 126 114 115 95 70 73 202 269 331 29 94 187 299 274 259 276 244 270 282 264 262 253 228 223 222 217 209 207
165 162 161 165 165 149 84 158 160 155 126 151 152 142 156 224 298 64 83 71 328 359 33 309 351 11 335 12 33 86 127 323 74 3 8 38 16 47 80 81 127 103 7 100 118 262 12 4 9 28 59 67 67 302 231 138 93 234 188 134 110 121 142 142 91 75 337 4 330 330 33 100 272 277 311 353 228 273 269 242 248 249 232 223 222 223 218 216
166 164 165 169 170 150 121 158 160 160 151 151 149 142 349 338 15 56 77 106 301 16 44 328 19 334 339 17 23 36 38 29 75 308 345 42 32 51 92 140 132 108 36 81 137 182 80 308 230 101 74 75 233 261 198 149 46 188 149 96 50 70 91 83 84 92 32 34 268 290 3 32 276 280 318 12 247 256 254 242 241 244 244 232 224 224 218 222
166 168 170 173 173 151 142 157 156 158 165 161 158 228 325 357 64 62 54 167 105 299 272 358 319 335 24 43 14 10 34 18 337 342 3 31 23 40 86 142 111 96 49 51 83 151 321 312 173 100 78 167 201 271 173 158 298 118 94 56 38 29 44 54 51 82 60 342 254 267 346 56 300 280 232 206 223 212 209 239 249 249 255 242 234 229 214 214
166 170 173 173 168 144 145 159 160 164 176 185 208 310 343 25 67 86 162 259 88 284 356 27 332 11 45 73 44 5 24 360 337 14 31 11 8 19 48 70 59 58 34 30 40 350 346 2 352 323 321 110 84 22 29 20 17 81 72 61 68 347 14 27 355 37 73 279 263 270 312 114 213 265 240 233 245 214 183 200 213 222 236 235 232 229 215 210
165 171 174 174 171 154 149 167 159 149 176 209 266 357 67 56 19 105 243 335 21 245 117 58 320 41 55 60 43 348 353 9 7 50 62 31 33 22 35 105 157 50 16 326 34 4 348 352 311 308 316 89 83 16 348 1 27 65 62 67 78 347 7 9 323 352 217 249 259 292 330 172 226 247 248 250 251 230 207 199 196 202 214 223 224 224 222 213
160 168 171 173 180 181 164 162 152 141 173 234 344 42 79 84 233 192 282 4 100 263 98 93 37 72 69 53 25 324 11 31 3 44 69 82 74 40 7 27 129 110 162 179 91 29 349 297 336 353 329 76 97 89 5 340 23 56 89 97 88 69 44 331 289 321 289 269 271 294 319 295 275 266 236 241 250 239 226 220 209 200 202 214 218 217 225 224
152 163 169 170 182 194 179 159 150 136 146 351 38 57 76 107 208 180 235 226 223 328 37 99 65 48 49 64 319 296 64 39 340 34 31 34 57 30 336 345 19 93 121 114 127 123 110 254 348 31 304 21 52 74 98 159 354 25 174 133 103 132 126 240 254 245 279 292 295 304 303 200 248 279 228 243 268 278 267 247 236 228 222 223 227 228 232 232
144 148 156 150 149 163 160 157 150 126 61 41 54 67 110 202 216 156 188 213 217 33 47 55 76 59 20 0 335 302 126 107 18 48 33 40 85 74 336 316 335 44 102 104 175 120 99 240 268 311 293 45 39 320 89 97 356 240 178 76 65 142 128 120 190 186 207 320 304 286 242 212 225 281 293 308 306 297 312 314 286 254 255 243 222 230 230 228
140 134 128 114 111 132 147 152 145 115 88 74 63 71 177 206 196 164 174 158 152 155 124 71 67 72 11 331 355 1 24 63 58 53 27 45 145 218 331 262 295 23 106 131 150 115 98 266 302 335 352 79 124 234 32 82 245 324 65 64 188 155 116 108 199 338 70 39 289 288 276 290 325 316 323 353 341 297 301 298 274 256 272 284 235 228 228 229
136 120 99 79 84 125 147 149 144 120 88 82 87 176 210 211 174 170 183 125 134 128 108 105 73 91 159 249 322 324 0 33 48 61 62 19 150 212 304 256 224 200 179 148 149 175 137 134 315 355 13 282 173 124 40 235 183 84 100 177 212 133 98 98 74 357 37 33 285 325 295 297 340 321 320 342 308 277 271 262 269 273 273 265 246 237 233 232
131 107 74 54 65 126 143 136 135 111 77 74 88 202 188 165 179 166 178 160 128 94 88 120 150 140 176 157 212 280 1 6 3 54 117 230 353 168 191 258 210 225 238 177 117 173 124 109 303 287 215 300 350 81 13 311 43 93 143 179 114 118 92 44 67 23 14 328 294 314 305 273 221 236 290 292 249 247 252 249 258 258 247 242 244 243 243 242
127 104 53 28 48 116 144 146 129 80 68 83 144 198 169 176 252 212 182 166 115 101 98 154 142 75 150 145 152 197 3 144 156 80 126 176 36 167 167 222 226 250 287 145 135 218 102 106 271 252 227 310 355 55 236 284 18 36 28 357 21 127 154 71 59 121 193 302 296 319 332 292 233 217 217 238 236 231 237 239 238 239 235 232 236 238 241 241
125 90 5 341 48 108 140 130 75 55 70 130 175 176 149 181 249 255 217 202 130 123 148 168 145 107 140 157 153 157 82 116 142 108 138 161 132 180 171 29 266 300 330 20 97 22 35 83 240 299 318 286 287 233 198 186 155 61 44 6 356 72 134 133 24 96 130 142 199 328 322 280 255 210 192 231 245 230 222 222 230 237 236 234 234 235 237 236
107 83 329 327 62 104 108 78 48 58 97 119 145 140 161 163 136 335 294 227 126 227 168 146 137 135 147 148 171 171 111 79 116 111 163 184 140 157 17 59 88 321 339 32 59 35 67 120 154 341 341 236 249 275 171 138 105 109 133 186 164 108 106 100 331 326 82 129 169 150 291 276 264 207 207 240 256 248 234 227 240 246 239 239 237 231 232 234
83 96 248 337 72 70 74 64 27 62 102 114 141 132 128 117 107 88 330 30 105 278 67 103 116 129 142 136 158 167 122 89 85 102 168 208 158 145 8 70 136 182 87 110 322 253 150 99 99 178 251 237 280 327 84 92 78 105 58 240 139 111 110 119 235 264 99 82 139 107 276 270 263 217 221 247 259 260 245 224 245 260 252 249 250 245 239 237
94 135 138 68 24 22 72 76 357 30 63 236 275 33 34 86 105 134 11 17 73 76 46 57 102 110 147 149 131 148 132 116 172 159 166 208 84 196 251 335 238 183 122 169 266 273 92 80 76 302 299 319 333 1 63 55 53 93 295 250 142 113 120 140 168 178 146 178 153 86 280 269 275 262 243 255 269 281 269 229 235 261 272 267 263 261 253 244
126 148 107 43 358 2 89 123 145 97 157 258 62 39 10 61 89 118 145 330 228 124 98 112 177 99 130 112 95 131 171 120 87 359 133 152 137 218 246 337 316 193 170 206 194 327 338 101 88 33 354 348 348 352 356 357 2 197 233 226 176 109 96 118 127 79 4 219 155 131 247 256 271 300 306 309 318 307 289 261 232 245 268 275 270 268 263 257
108 96 5 8 25 51 120 171 143 138 170 119 100 114 83 63 48 152 153 142 205 156 127 118 112 93 101 89 74 70 38 80 129 173 79 128 285 303 306 332 320 186 222 273 231 113 139 149 107 106 111 280 275 275 277 266 246 237 178 172 199 141 123 148 122 79 274 239 151 163 232 264 286 301 312 315 320 302 288 285 268 250 258 267 270 271 268 264
113 89 322 339 22 52 65 145 110 125 162 138 118 148 110 88 290 249 137 126 264 144 92 81 140 93 74 76 75 53 8 24 84 119 123 175 253 275 282 327 339 188 248 277 241 91 101 109 121 142 169 189 190 215 224 148 140 217 194 182 194 171 136 124 110 146 196 176 188 223 234 284 293 294 305 308 302 291 286 289 285 274 268 268 267 267 266 263
115 135 150 172 40 47 32 20 86 115 154 146 130 157 140 119 144 334 87 181 187 124 62 54 129 126 124 124 104 86 352 10 39 85 128 186 232 280 282 305 358 301 311 283 229 93 91 337 239 157 212 222 197 206 208 132 198 207 190 189 190 178 150 142 173 207 165 121 274 254 205 248 278 285 297 300 299 296 290 287 282 279 277 275 277 276 272 268
108 155 151 147 153 142 99 165 142 111 106 109 96 117 133 133 149 164 167 42 34 99 89 69 322 204 174 159 125 119 127 45 34 103 152 181 187 359 334 264 252 344 23 13 320 100 116 229 245 174 267 264 237 221 192 174 229 213 188 192 186 177 179 189 209 200 158 186 250 249 148 234 269 284 288 286 288 289 287 287 288 287 282 278 282 282 276 272
89 116 34 12 115 165 170 148 131 111 101 100 89 126 153 156 172 200 173 88 15 304 103 142 224 211 170 147 113 135 176 152 129 210 187 162 165 134 109 217 248 9 46 48 339 61 131 208 204 154 294 297 315 337 200 181 206 258 229 211 193 189 195 208 226 206 191 240 263 278 289 277 271 271 273 275 278 279 284 290 292 289 286 284 283 276 273 272
138 155 158 56 67 115 68 84 114 111 92 81 105 156 162 154 168 198 158 113 151 228 192 161 179 162 142 121 104 135 206 182 163 205 177 142 169 200 182 190 170 54 33 70 349 335 106 252 165 112 330 305 325 31 52 139 173 249 262 237 195 193 208 227 245 226 219 258 271 275 283 281 268 252 258 272 283 293 294 293 289 283 282 288 286 278 274 273
126 153 150 111 74 15 47 82 111 114 119 146 149 166 173 178 180 159 118 138 159 175 195 171 152 134 81 79 92 104 230 200 189 207 163 138 154 190 179 155 140 129 125 152 57 351 94 87 43 70 23 297 308 39 29 45 82 279 282 257 200 184 197 218 222 204 196 211 235 255 262 263 259 244 275 284 289 290 282 282 288 288 282 278 279 280 280 275
112 92 131 108 83 27 123 103 86 114 171 204 161 159 175 194 190 139 104 234 94 116 201 171 142 118 80 91 103 230 225 171 147 132 126 113 94 90 83 77 98 122 157 152 114 63 113 117 122 88 84 270 290 355 340 23 39 307 273 227 186 182 198 226 245 226 204 174 154 200 230 246 266 329 325 301 295 294 285 276 278 289 292 285 274 273 277 276